リニア彗星

C/2002 B3 ( LINEAR )

English version
Home page
Updated on July 29, 2002

---------------------------------------------------------------------

・ プロフィール

発見日 2002年1月26日
発見光度 19.5等
発見者 Lincoln Laboratory Near-Earth Asteroid Research project

・ 軌道要素

T 2002 Jan. 14.4151 TT                                  MPCM
q   6.052462             (2000.0)            P               Q
                   Peri.  122.9251      +0.0420867      -0.4226917
                   Node   289.3856      +0.2218156      +0.8874389
e   1.0            Incl.   73.6796      +0.9741799      -0.1838039
From 45 observations 2002 Feb. 1-Mar. 11.

・ 星図

・ 光度変化

        m1 = 7.5 + 5 logΔ + 10.0 log r

---------------------------------------------------------------------

軌道要素はMPCのEphemerides and Orbital Elementsに掲載されたものです。
星図は StellaNavigator Ver.2.0 for Windows (アストロアーツ 編著 / アスキー出版局刊) で作成したものです。
光度グラフはComet for Windowsで作成したものです。

---------------------------------------------------------------------

Copyright(C) Seiichi Yoshida (comet@aerith.net). All rights reserved.